#timestamp,LO_Frequency,Hit,StdDev 
1669608015.2,286047004.1,P
1669608035.0,286047003.9,N
1669608035.9,286047003.9,N
1669608055.8,286047003.8,N
1669608075.6,286047004.2,N
1669608095.5,286047004.2,N
1669608115.3,286047001.8,N
1669608135.1,286047003.3,N
1669608155.9,286047005.9,N
1669608175.7,286047001.4,N
1669608195.5,286047001.5,N
1669608215.4,286047001.7,N
1669608235.2,286047001.6,N
1669608255.1,286047002.2,N
1669608256.0,286047002.2,N
1669608275.8,286047002.1,N
1669608295.6,286047000.2,N
1669608315.5,286047001.6,N
1669608335.3,286047004.4,N
1669608355.1,286047001.9,N
1669608375.9,286047004.4,N
1669608395.7,286047003.2,N
1669608415.6,286047001.6,N
1669608435.4,286047004.0,N
1669608455.2,286047004.3,N
1669608475.1,286047003.2,N
1669608476.0,286047003.2,N
1669608495.8,286047003.6,N
1669608515.7,286047003.1,N
1669608535.5,286047004.1,N
1669608555.3,286047001.9,N
1669608575.2,286047001.8,N
1669608595.0,286047002.5,N
1669608595.9,286047002.5,N
1669608615.8,286046999.7,N
1669608635.6,286047000.5,N
1669608655.4,286047000.7,N
1669608675.3,286047000.5,N
1669608695.1,286047000.1,N
1669608715.8,286047001.3,N
1669608735.7,286047004.4,Y
1669608755.5,286047000.5,P
1669608775.4,286047000.3,N
1669608795.2,286047001.2,N
1669608815.0,286047001.0,N
1669608815.9,286047001.0,N
1669608835.8,286047000.9,N
1669608855.6,286047000.5,N
1669608875.5,286047000.4,N
1669608895.3,286047000.3,N
1669608915.1,286047000.7,N
1669608935.9,286047000.6,N
1669608955.7,286046999.9,N
1669608975.5,286047000.5,N
1669608995.4,286046999.9,N
1669609015.2,286047000.7,N
1669609035.1,286046998.2,Y
1669609036.0,286046998.2,P
1669609055.8,286046998.9,N
1669609075.6,286047000.7,N
1669609095.5,286046998.1,N
1669609115.3,286047000.8,N
1669609135.2,286047001.2,N
1669609155.9,286047000.7,N
1669609175.7,286046998.7,N
1669609195.6,286046996.6,N
1669609245.4,286046995.2,E
1669609255.4,286046996.5,N
1669609275.2,286046999.7,P
1669609295.0,286047002.3,N
1669609295.9,286047002.3,N
1669609315.8,286047002.0,N
1669609335.6,286047002.3,N
1669609355.5,286047001.6,N
1669609375.3,286047005.1,N
1669609395.1,286047007.4,Y
1669609415.9,286047003.2,P
1669609435.7,286047003.9,P
1669609455.5,286047003.2,P
1669609475.4,286047003.5,Y
1669609495.2,286046999.8,P
1669609515.1,286047002.7,N
1669609516.0,286047002.7,N
1669609535.8,286047002.2,N
1669609555.6,286047002.1,N
1669609575.5,286047001.7,N
1669609595.3,286047003.6,Y
1669609615.2,286047002.5,P
1669609635.0,286047000.3,N
1669609635.9,286047000.3,N
1669609655.7,286047001.1,N
1669609675.6,286047000.1,N
1669609695.4,286047001.2,N
1669609715.3,286046998.1,N
1669609735.1,286046998.8,N
1669609755.8,286046999.0,N
1669609775.7,286046999.4,N
1669609795.5,286046996.5,N
1669609815.4,286046995.0,Y
1669609835.2,286046998.0,P
1669609855.0,286046997.7,N
1669609855.9,286046997.7,N
1669609875.8,286046996.5,Y
1669609895.6,286047002.8,P
1669609915.5,286047002.2,N
1669609935.3,286047000.1,N
1669609955.1,286046999.9,N
1669609975.9,286047002.6,N
1669609995.7,286047001.0,N
1669610015.5,286047001.0,N
1669610035.4,286047001.1,N
1669610055.2,286047002.1,N
1669610075.1,286047002.8,N
1669610076.0,286047002.8,N
1669610095.8,286047002.3,N
1669610115.6,286047002.4,N
1669610135.5,286047002.7,N
1669610155.3,286047002.2,N
1669610175.2,286047002.2,N
1669610195.9,286047002.7,N
1669610215.7,286047000.3,N
1669610235.6,286047002.7,N
1669610255.4,286046999.7,N
1669610275.2,286047000.1,N
1669610295.1,286047002.5,N
1669610296.0,286047002.5,N
1669610315.8,286047002.6,N
1669610335.7,286047002.5,N
1669610355.5,286047000.1,N
1669610375.3,286047000.3,N
1669610395.2,286047000.7,N
1669610415.0,286047000.7,N
1669610415.9,286047000.7,N
1669610435.8,286046998.3,N
1669610455.6,286046998.9,N
1669610475.4,286046998.1,N
1669610495.3,286046998.2,N
1669610515.1,286046998.7,N
1669610535.9,286046998.5,N
1669610555.7,286046999.0,N
1669610575.5,286046998.4,N
1669610595.4,286046998.3,N
1669610615.2,286046999.1,N
1669610635.1,286046999.2,N
1669610636.0,286046999.2,N
1669610655.8,286046997.2,N
1669610675.6,286046998.0,N
1669610695.5,286046994.9,Y
1669610715.3,286046997.5,P
1669610735.1,286046995.0,P
1669610755.9,286046997.5,N
1669610775.7,286046997.6,N
1669610795.6,286046995.1,Y
1669610815.4,286046999.3,P
1669610835.2,286046996.5,P
1669610855.1,286046999.3,N
1669610856.0,286046999.3,N
1669610875.8,286046999.3,N
1669610895.7,286046999.2,N
1669610915.5,286046996.5,Y
1669610935.3,286046998.9,P
1669610955.2,286046999.0,P
1669610975.0,286046998.4,P
1669610975.9,286046998.4,Y
1669610995.8,286047001.1,P
1669611015.6,286046998.4,N
1669611035.4,286046999.6,N
1669611055.3,286046999.1,N
1669611075.1,286046996.9,Y
1669611095.8,286046998.2,P
1669611115.7,286046998.5,N
1669611135.5,286047001.1,N
1669611155.4,286046998.1,N
1669611175.2,286047001.2,N
1669611195.0,286046998.1,N
1669611195.9,286046998.1,N
1669611215.8,286047000.7,N
1669611235.6,286047000.9,N
1669611255.4,286047000.3,N
1669611275.3,286046998.1,N
1669611295.1,286047000.9,N
1669611315.9,286047000.4,N
1669611335.7,286046999.9,N
1669611355.5,286047000.3,N
1669611375.4,286047000.4,N
1669611395.2,286047000.7,N
1669611415.0,286047000.8,N
1669611415.9,286047000.8,N
1669611435.8,286046998.5,N
1669611455.6,286046998.6,N
1669611475.5,286047000.8,N
1669611495.3,286046998.4,N
1669611515.1,286047000.1,N
1669611535.9,286047000.5,N
1669611555.7,286047000.8,N
1669611575.5,286046996.9,N
1669611595.4,286046996.9,N
